Location: Gwatt
(46.7204°N, 7.6223°E)
Time: 14:37:49
(UTC+00:00)

deb Explorer IX - Pass Details

Date: 23 January 2021
Orbit: 537 x 1102 km, 38.8° (Epoch: 01 March)

Event Time Altitude Azimuth Distance (km) Brightness Sun altitude
Rises 18:30:25 0° 243° (WSW) 3,601 ? -22.2°
Reaches altitude 10° 18:33:25 10° 234° (SW) 2,563 ? -22.7°
Maximum altitude 18:38:48 34° 172° (S) 1,307 ? -23.6°
Enters shadow 18:39:40 32° 153° (SSE) 1,331 ? -23.7°
Drops below altitude 10° 18:43:27 10° 109° (ESE) 2,210 - -24.4°
Sets 18:45:52 0° 99° (E) 3,041 - -24.8°
